Regional Weather Roundup
Issued by NWS

Home | Current Version | Previous Version | Text Only | Print | Product List | Glossary Off
Versions: 1 2 3 4 5 6 7 8 9 10 11 12 13 14 15 16 17 18 19 20 21 22 23 24 25 26 27 28 29 30 31 32 33 34 35 36 37 38 39 40 41 42 43 44 45 46 47 48 49 50

849
ASUS43 KBIS 260131
RWRND
NORTH DAKOTA REGIONAL WEATHER ROUNDUP
NATIONAL WEATHER SERVICE EASTERN NORTH DAKOTA/GRAND FORKS ND
800 PM CDT WED APR 25 2018

  NOTE: "FAIR" INDICATES FEW OR NO CLOUDS BELOW 12,000 FEET WITH NO
  SIGNIFICANT WEATHER AND/OR OBSTRUCTIONS TO VISIBILITY.

NDZ001>003-009>011-017-260200-
...NORTHWEST NORTH DAKOTA...

CITY           SKY/WX    TMP DP  RH WIND       PRES   REMARKS
WILLISTON      FAIR      64  29  26 N14       29.87R
MINOT          FAIR      66  30  26 W10       29.75S
MINOT AFB      FAIR      65  32  29 N16       29.74S
$$

NDZ018>021-031>035-040>046-260200-
...SOUTHWEST NORTH DAKOTA...

CITY           SKY/WX    TMP DP  RH WIND       PRES   REMARKS
BISMARCK       FAIR      65  25  22 SW10      29.79F
DICKINSON      FAIR      60  33  36 W12       29.83S
GARRISON         N/A     62  33  33 W10       29.78S
HETTINGER      FAIR      61  28  28 NW12      29.88R
$$

NDZ004>008-012>016-024-026-027-054-260200-
...NORTHEAST NORTH DAKOTA...

CITY           SKY/WX    TMP DP  RH WIND       PRES   REMARKS
GRAND FORKS    MOCLDY    57  40  52 S13       29.79F
GRAND FORKS AF FAIR      58  36  44 S12       29.78F
DEVILS LAKE    FAIR      55  29  36 SW10      29.76F
$$

NDZ022-023-025-028>030-036>039-047>053-260200-
...SOUTHEAST NORTH DAKOTA...

CITY           SKY/WX    TMP DP  RH WIND       PRES   REMARKS
JAMESTOWN      FAIR      59  31  34 S14       29.81F
FARGO          FAIR      60  34  37 S16       29.85F
WAHPETON       FAIR      52  36  54 S9        29.90F
$$




USA.gov is the U.S. government's official web portal to all federal, state and local government web resources and services.